When you browse on this site, cookies collect data to enhance your experience and personalize the content and advertising you see.
Visit our Privacy Policy to learn more. By continuing to use the site, you agree to this use of cookies and data.
  • In United Kingdom
  • List of Countries
  • For 7 days
  • Water Temperature
  • Satellite Maps
  • Weather Map
  • Weather Widgets
  • user-avatar
    Login

    Hourly Weather Aberchirder

    Today, 18 June, Tuesday

    Time Temperature Precipitation Wind Pressure Humidity
    00:00 +7°C° 0 mm 4 mps 745 mmHg 90%
    01:00 +6°C° 0 mm 4 mps 745 mmHg 90%
    02:00 +6°C° 0 mm 4 mps 745 mmHg 90%
    03:00 +6°C° 0 mm 4 mps 745 mmHg 89%
    04:00 +7°C° 0 mm 4 mps 744 mmHg 87%
    05:00 +8°C° 0 mm 4 mps 744 mmHg 85%
    06:00 +11°C° 0 mm 4 mps 744 mmHg 82%
    07:00 +12°C° 0 mm 5 mps 744 mmHg 77%
    08:00 +13°C° 0 mm 5 mps 744 mmHg 72%
    09:00 +14°C° 0 mm 5 mps 744 mmHg 67%
    10:00 +14°C° 0 mm 5 mps 744 mmHg 68%
    11:00 +14°C° 0 mm 5 mps 744 mmHg 70%
    12:00 +14°C° 0 mm 5 mps 744 mmHg 71%
    13:00 +14°C° 0.1 mm 5 mps 744 mmHg 70%
    14:00 +15°C° 0.1 mm 4 mps 744 mmHg 68%
    15:00 +15°C° 0.1 mm 4 mps 744 mmHg 67%
    16:00 +15°C° 0.1 mm 4 mps 744 mmHg 70%
    17:00 +16°C° 0.1 mm 3 mps 744 mmHg 72%
    18:00 +16°C° 0.1 mm 3 mps 744 mmHg 75%
    19:00 +14°C° 0.1 mm 2 mps 744 mmHg 78%
    20:00 +13°C° 0.1 mm 2 mps 744 mmHg 80%
    21:00 +12°C° 0.1 mm 2 mps 745 mmHg 83%
    22:00 +10°C° 0 mm 2 mps 745 mmHg 85%
    23:00 +9°C° 0 mm 2 mps 745 mmHg 87%

    Tomorrow, 19 June, Wednesday

    Time Temperature Precipitation Wind Pressure Humidity
    00:00 +8°C° 0 mm 2 mps 744 mmHg 88%
    01:00 +8°C° 0 mm 2 mps 744 mmHg 88%
    02:00 +8°C° 0 mm 2 mps 744 mmHg 87%
    03:00 +7°C° 0 mm 2 mps 744 mmHg 86%
    04:00 +8°C° 0 mm 2 mps 744 mmHg 85%
    05:00 +10°C° 0 mm 2 mps 744 mmHg 83%
    06:00 +12°C° 0 mm 2 mps 743 mmHg 82%
    07:00 +13°C° 0 mm 2 mps 743 mmHg 77%
    08:00 +14°C° 0 mm 2 mps 743 mmHg 72%
    09:00 +16°C° 0 mm 2 mps 743 mmHg 67%
    10:00 +16°C° 0.3 mm 2 mps 743 mmHg 69%
    11:00 +16°C° 0.3 mm 2 mps 743 mmHg 72%
    12:00 +16°C° 0.3 mm 2 mps 743 mmHg 74%
    13:00 +16°C° 0.7 mm 3 mps 743 mmHg 77%
    14:00 +14°C° 0.7 mm 3 mps 742 mmHg 80%
    15:00 +14°C° 0.7 mm 3 mps 742 mmHg 83%
    16:00 +13°C° 0.2 mm 3 mps 742 mmHg 83%
    17:00 +14°C° 0.2 mm 2 mps 742 mmHg 84%
    18:00 +13°C° 0.2 mm 1 mps 742 mmHg 84%
    19:00 +12°C° 0.1 mm 1 mps 742 mmHg 86%
    20:00 +11°C° 0.1 mm 1 mps 742 mmHg 88%
    21:00 +11°C° 0.1 mm 1 mps 742 mmHg 89%
    22:00 +10°C° 0.1 mm 1 mps 742 mmHg 88%
    23:00 +10°C° 0.1 mm 1 mps 742 mmHg 88%

    Day after tomorrow, 20 June, Thursday

    Time Temperature Precipitation Wind Pressure Humidity
    00:00 +10°C° 0.1 mm 1 mps 742 mmHg 87%
    01:00 +8°C° 0 mm 2 mps 741 mmHg 87%
    02:00 +8°C° 0 mm 2 mps 741 mmHg 87%
    03:00 +7°C° 0 mm 2 mps 741 mmHg 88%
    04:00 +8°C° 0 mm 3 mps 741 mmHg 87%
    05:00 +8°C° 0 mm 3 mps 741 mmHg 86%
    06:00 +9°C° 0 mm 3 mps 741 mmHg 85%
    07:00 +11°C° 0.1 mm 3 mps 741 mmHg 80%
    08:00 +12°C° 0.1 mm 4 mps 741 mmHg 74%
    09:00 +13°C° 0.1 mm 4 mps 741 mmHg 68%
    10:00 +13°C° 0.5 mm 4 mps 741 mmHg 70%
    11:00 +13°C° 0.5 mm 5 mps 741 mmHg 71%
    12:00 +14°C° 0.5 mm 6 mps 742 mmHg 72%
    13:00 +14°C° 0.4 mm 6 mps 742 mmHg 71%
    14:00 +14°C° 0.4 mm 5 mps 742 mmHg 70%
    15:00 +14°C° 0.4 mm 5 mps 742 mmHg 69%
    16:00 +13°C° 0.2 mm 5 mps 743 mmHg 70%
    17:00 +13°C° 0.2 mm 5 mps 743 mmHg 71%
    18:00 +12°C° 0.2 mm 5 mps 743 mmHg 73%
    19:00 +10°C° 0 mm 5 mps 744 mmHg 75%
    20:00 +8°C° 0 mm 5 mps 745 mmHg 78%
    21:00 +7°C° 0 mm 5 mps 745 mmHg 80%
    22:00 +6°C° 0 mm 5 mps 745 mmHg 82%
    23:00 +5°C° 0 mm 5 mps 746 mmHg 84%

    21 June, Friday

    Time Temperature Precipitation Wind Pressure Humidity
    00:00 +5°C° 0 mm 5 mps 746 mmHg 86%
    01:00 +3°C° 0 mm 5 mps 746 mmHg 87%
    02:00 +4°C° 0 mm 4 mps 747 mmHg 87%
    03:00 +3°C° 0 mm 4 mps 747 mmHg 88%
    04:00 +5°C° 0 mm 4 mps 747 mmHg 85%
    05:00 +6°C° 0 mm 4 mps 747 mmHg 82%
    06:00 +7°C° 0 mm 4 mps 748 mmHg 79%
    07:00 +8°C° 0 mm 4 mps 748 mmHg 74%
    08:00 +10°C° 0 mm 4 mps 748 mmHg 70%
    09:00 +11°C° 0 mm 3 mps 749 mmHg 65%
    10:00 +12°C° 0.4 mm 3 mps 749 mmHg 67%
    11:00 +13°C° 0.4 mm 2 mps 749 mmHg 69%
    12:00 +13°C° 0.4 mm 2 mps 749 mmHg 71%
    13:00 +13°C° 0.4 mm 2 mps 749 mmHg 72%
    14:00 +13°C° 0.4 mm 2 mps 749 mmHg 73%
    15:00 +13°C° 0.4 mm 2 mps 749 mmHg 74%
    16:00 +13°C° 0.3 mm 2 mps 749 mmHg 75%
    17:00 +13°C° 0.3 mm 1 mps 749 mmHg 76%
    18:00 +13°C° 0.3 mm 1 mps 749 mmHg 77%
    19:00 +12°C° 0.2 mm 1 mps 749 mmHg 79%
    20:00 +11°C° 0.2 mm 1 mps 750 mmHg 82%
    21:00 +9°C° 0.2 mm 2 mps 750 mmHg 84%
    22:00 +8°C° 0.1 mm 2 mps 750 mmHg 86%
    23:00 +7°C° 0.1 mm 3 mps 750 mmHg 88%

    22 June, Saturday

    Time Temperature Precipitation Wind Pressure Humidity
    00:00 +5°C° 0.1 mm 4 mps 750 mmHg 90%
    01:00 +5°C° 0 mm 4 mps 751 mmHg 90%
    02:00 +5°C° 0 mm 4 mps 751 mmHg 90%
    03:00 +4°C° 0 mm 4 mps 751 mmHg 90%
    04:00 +5°C° 0 mm 4 mps 751 mmHg 88%
    05:00 +6°C° 0 mm 4 mps 751 mmHg 86%
    06:00 +7°C° 0 mm 4 mps 751 mmHg 84%
    07:00 +8°C° 0 mm 4 mps 752 mmHg 78%
    08:00 +10°C° 0 mm 5 mps 752 mmHg 72%
    09:00 +12°C° 0 mm 5 mps 752 mmHg 66%
    10:00 +12°C° 0.3 mm 5 mps 752 mmHg 67%
    11:00 +13°C° 0.3 mm 4 mps 752 mmHg 68%
    12:00 +13°C° 0.3 mm 4 mps 752 mmHg 69%
    13:00 +13°C° 0.4 mm 3 mps 752 mmHg 69%
    14:00 +14°C° 0.4 mm 3 mps 752 mmHg 69%
    15:00 +14°C° 0.4 mm 3 mps 753 mmHg 69%
    16:00 +13°C° 0.3 mm 3 mps 753 mmHg 73%
    17:00 +13°C° 0.3 mm 3 mps 753 mmHg 76%
    18:00 +13°C° 0.3 mm 3 mps 753 mmHg 80%
    19:00 +12°C° 0.2 mm 2 mps 753 mmHg 83%
    20:00 +10°C° 0.2 mm 2 mps 754 mmHg 86%
    21:00 +10°C° 0.2 mm 1 mps 754 mmHg 89%
    22:00 +9°C° 0 mm 1 mps 755 mmHg 89%
    23:00 +9°C° 0 mm 1 mps 755 mmHg 90%

    23 June, Sunday

    Time Temperature Precipitation Wind Pressure Humidity
    00:00 +8°C° 0 mm 1 mps 755 mmHg 91%
    01:00 +7°C° 0 mm 1 mps 755 mmHg 91%
    02:00 +7°C° 0 mm 1 mps 755 mmHg 91%
    03:00 +6°C° 0 mm 2 mps 755 mmHg 91%
    04:00 +7°C° 0 mm 2 mps 756 mmHg 90%
    05:00 +8°C° 0 mm 2 mps 756 mmHg 88%
    06:00 +9°C° 0 mm 2 mps 756 mmHg 87%
    07:00 +10°C° 0 mm 2 mps 756 mmHg 82%
    08:00 +12°C° 0 mm 2 mps 757 mmHg 77%
    09:00 +13°C° 0 mm 2 mps 757 mmHg 73%
    10:00 +14°C° 0.2 mm 2 mps 757 mmHg 74%
    11:00 +14°C° 0.2 mm 2 mps 757 mmHg 75%
    12:00 +14°C° 0.2 mm 1 mps 758 mmHg 76%
    13:00 +13°C° 0.2 mm 2 mps 758 mmHg 80%
    14:00 +12°C° 0.2 mm 3 mps 758 mmHg 84%
    15:00 +11°C° 0.2 mm 3 mps 758 mmHg 88%
    16:00 +11°C° 0.1 mm 3 mps 758 mmHg 86%
    17:00 +12°C° 0.1 mm 3 mps 758 mmHg 85%
    18:00 +12°C° 0.1 mm 3 mps 758 mmHg 83%
    19:00 +12°C° 0 mm 2 mps 758 mmHg 86%
    20:00 +10°C° 0 mm 2 mps 759 mmHg 88%
    21:00 +8°C° 0 mm 2 mps 759 mmHg 91%
    22:00 +8°C° 0 mm 2 mps 759 mmHg 90%
    23:00 +8°C° 0 mm 2 mps 759 mmHg 89%
    Show more